Location: Bannatyne
(13.0833°N, 59.5333°W)
Time: 14:59:02
(UTC+00:00)

Vanguard 3 - Pass Details

Date: 30 January 2020
Orbit: 508 x 3263 km, 33.3° (Epoch: 22 February)

Event Time Altitude Azimuth Distance (km) Brightness Sun altitude
Rises 18:02:22 0° 242° (WSW) 5,171 11.9 48.8°
Reaches altitude 10° 18:05:13 10° 244° (WSW) 4,477 11.8 48.4°
Maximum altitude 18:18:57 77° 329° (NNW) 2,875 10.7 46.0°
Drops below altitude 10° 18:39:04 10° 55° (NE) 6,197 11.3 42.3°
Sets 18:43:53 0° 57° (ENE) 7,160 11.5 41.4°
